4XBIG LLHZ-LLHZ

Flight info

Callsign 4XBIG
Flight time 0h 12m
Altitude 1000
Route VFR
Aircraft R44/L-SDE2E3FGHIJ1LORVWXY/LB1

Departure

Time 2026-04-16 13:28
Airport Herzliya Airport (LLHZ)

Arrival

Time 2026-04-16 13:40
Airport Herzliya Airport (LLHZ)
Time Latitude Longitude Altitude Speed Heading
2026-04-16 13:10 32.18151 34.82840 93 ft 0 kts 75°
2026-04-16 13:20 32.18152 34.82846 105 ft 7 kts 76°
2026-04-16 13:20 32.18138 34.82905 102 ft 9 kts 76°
2026-04-16 13:20 32.18144 34.82950 102 ft 4 kts 62°
2026-04-16 13:21 32.18143 34.82960 102 ft 1 kts 15°
2026-04-16 13:21 32.18152 34.82965 99 ft 1 kts 13°
2026-04-16 13:21 32.18154 34.82967 95 ft 0 kts 352°
2026-04-16 13:21 32.18154 34.82968 96 ft 1 kts 348°
2026-04-16 13:22 32.18154 34.82967 100 ft 0 kts 11°
2026-04-16 13:22 32.18268 34.83030 199 ft 53 kts 25°
2026-04-16 13:22 32.18526 34.83521 343 ft 83 kts 43°
2026-04-16 13:22 32.18967 34.84085 350 ft 103 kts 30°
2026-04-16 13:23 32.19590 34.84556 321 ft 109 kts 43°
2026-04-16 13:23 32.19889 34.85220 838 ft 32 kts 55°
2026-04-16 13:23 32.20072 34.85622 703 ft 102 kts 57°
2026-04-16 13:23 32.20422 34.86535 362 ft 124 kts 55°
2026-04-16 13:24 32.21046 34.87285 384 ft 129 kts 38°
2026-04-16 13:24 32.21816 34.87796 393 ft 129 kts 24°
2026-04-16 13:24 32.22671 34.88085 328 ft 123 kts 12°
2026-04-16 13:24 32.23301 34.88459 306 ft 89 kts 59°
2026-04-16 13:25 32.23513 34.88822 333 ft 15 kts 35°
2026-04-16 13:25 32.23564 34.88882 236 ft 20 kts 33°
2026-04-16 13:25 32.23806 34.89117 437 ft 48 kts 29°
2026-04-16 13:25 32.24043 34.88715 211 ft 73 kts 283°
2026-04-16 13:26 32.24350 34.88396 286 ft 77 kts 359°
2026-04-16 13:26 32.24770 34.88471 219 ft 53 kts 349°
2026-04-16 13:26 32.24908 34.88503 393 ft 24 kts 81°
2026-04-16 13:26 32.25039 34.89030 236 ft 87 kts 83°
2026-04-16 13:27 32.25178 34.89551 129 ft 48 kts 318°
2026-04-16 13:27 32.25223 34.89482 247 ft 21 kts 340°
2026-04-16 13:27 32.25430 34.89347 383 ft 45 kts 343°
2026-04-16 13:27 32.25637 34.89168 671 ft 33 kts 306°
2026-04-16 13:28 32.25413 34.88967 981 ft 53 kts 192°
2026-04-16 13:28 32.25049 34.89084 1358 ft 73 kts 160°
2026-04-16 13:28 32.24580 34.88685 1519 ft 98 kts 242°
2026-04-16 13:28 32.24397 34.87924 1873 ft 95 kts 269°
2026-04-16 13:29 32.24332 34.87104 2194 ft 108 kts 271°
2026-04-16 13:29 32.24243 34.86126 2129 ft 129 kts 265°
2026-04-16 13:29 32.24028 34.85046 2192 ft 140 kts 256°
2026-04-16 13:29 32.23942 34.84280 2174 ft 144 kts 270°
2026-04-16 13:30 32.23865 34.83051 2164 ft 154 kts 266°
2026-04-16 13:30 32.23720 34.81780 2006 ft 159 kts 266°
2026-04-16 13:30 32.23496 34.80475 1812 ft 162 kts 264°
2026-04-16 13:30 32.23380 34.79179 1423 ft 157 kts 262°
2026-04-16 13:31 32.23284 34.77887 932 ft 160 kts 270°
2026-04-16 13:31 32.23196 34.76589 569 ft 157 kts 271°
2026-04-16 13:31 32.22723 34.75555 345 ft 137 kts 214°
2026-04-16 13:31 32.22042 34.75514 836 ft 57 kts 181°
2026-04-16 13:32 32.21590 34.75530 1107 ft 88 kts 175°
2026-04-16 13:32 32.20887 34.75456 1243 ft 106 kts 194°
2026-04-16 13:32 32.20160 34.75230 1578 ft 111 kts 194°
2026-04-16 13:32 32.19429 34.74931 1923 ft 108 kts 203°
2026-04-16 13:33 32.18738 34.74588 2264 ft 106 kts 199°
2026-04-16 13:33 32.18008 34.74330 2543 ft 113 kts 194°
2026-04-16 13:33 32.17205 34.73995 2483 ft 137 kts 197°
2026-04-16 13:33 32.16292 34.73638 2560 ft 135 kts 198°
2026-04-16 13:34 32.15327 34.73346 2398 ft 150 kts 196°
2026-04-16 13:34 32.14370 34.72935 2497 ft 142 kts 203°
2026-04-16 13:34 32.13441 34.72529 2508 ft 143 kts 195°
2026-04-16 13:34 32.12477 34.72207 2514 ft 145 kts 195°
2026-04-16 13:35 32.11548 34.71762 2475 ft 143 kts 210°
2026-04-16 13:35 32.10725 34.71198 2700 ft 131 kts 205°
2026-04-16 13:35 32.09959 34.70651 2480 ft 122 kts 212°
2026-04-16 13:35 32.09305 34.70758 2371 ft 101 kts 113°
2026-04-16 13:36 32.09253 34.71598 2371 ft 108 kts 99°
2026-04-16 13:36 32.08781 34.72329 2504 ft 110 kts 128°
2026-04-16 13:36 32.08275 34.73100 2480 ft 126 kts 126°
2026-04-16 13:36 32.07745 34.73984 2339 ft 140 kts 122°
2026-04-16 13:37 32.07248 34.75041 2168 ft 152 kts 117°
2026-04-16 13:37 32.06730 34.76116 2263 ft 143 kts 119°
2026-04-16 13:37 32.06204 34.77097 1967 ft 142 kts 122°
2026-04-16 13:37 32.05651 34.78182 1584 ft 161 kts 118°
2026-04-16 13:38 32.05089 34.79334 1629 ft 155 kts 116°
2026-04-16 13:38 32.04578 34.80510 1149 ft 161 kts 115°
2026-04-16 13:38 32.04057 34.81571 1310 ft 136 kts 118°
2026-04-16 13:38 32.03542 34.82512 948 ft 137 kts 123°
2026-04-16 13:39 32.03009 34.83492 751 ft 154 kts 116°
2026-04-16 13:39 32.02450 34.84664 592 ft 171 kts 117°
2026-04-16 13:39 32.01898 34.85757 354 ft 121 kts 120°
2026-04-16 13:39 32.01463 34.86590 204 ft 119 kts 119°
2026-04-16 13:40 32.01056 34.87384 172 ft 107 kts 118°
2026-04-16 13:40 32.00743 34.88065 174 ft 62 kts 70°
2026-04-16 13:40 32.00892 34.88159 190 ft 29 kts 47°
2026-04-16 13:40 32.00818 34.88373 149 ft 32 kts 117°
2026-04-16 13:41 32.00624 34.88757 155 ft 68 kts 121°
2026-04-16 13:41 32.00419 34.89165 218 ft 60 kts 112°
2026-04-16 13:41 32.00258 34.89469 124 ft 15 kts 113°
2026-04-16 13:41 32.00241 34.89562 156 ft 19 kts 90°
2026-04-16 13:42 32.00459 34.89662 159 ft 34 kts
2026-04-16 13:42 32.00583 34.89637 142 ft 16 kts 338°
2026-04-16 13:42 32.00706 34.89692 145 ft 24 kts
2026-04-16 13:42 32.00806 34.89751 158 ft 18 kts 12°
2026-04-16 13:43 32.00892 34.89804 135 ft 9 kts 350°
2026-04-16 13:43 32.00939 34.89772 113 ft 1 kts 313°